Lid_Strength_Index
1 1 1 0 -0 -0 -0 -0 -0 -1 -1 -1 -1 -1 -1 -0 -1 -0 -1 -1 -0 -0 -1 -1 -0 -1 -0 -0 -0 -0 0 1 2 1 0 -1 -1 -1 0 -1 -2 -2 0
1 1 1 0 0 0 0 -0 -1 -0 -1 -1 -1 -0 -0 -1 -1 -0 0 -0 -0 0 -0 -0 -0 -0 -0 -1 -0 -1 -1 -1 1 2 0 0 -0 -1 -1 -1 -0 -1 -1
0 0 0 0 0 0 -0 -0 -1 -1 -1 -1 -1 -0 -0 -0 -0 -0 -0 -0 -0 -0 -0 -0 -0 -1 -0 -0 -0 -0 -0 0 0 1 2 0 0 0 0 -1 -1 -2 -1
0 0 0 0 0 -0 -0 -0 -0 -1 -0 -0 -0 -0 -0 -0 -0 -0 -0 -0 -0 -0 -0 -0 -0 -0 -0 -0 -0 -0 -0 0 0 1 1 1 1 1 2 1 1 -0 1
0 0 1 -0 -0 -0 -0 -0 -1 -0 -0 -0 -0 -0 -0 -0 0 -0 -0 0 0 0 0 0 -0 -1 -0 -0 0 -0 -1 1 1 1 1 1 1 2 2 1 1 1 -1
1 1 0 -0 -0 -0 -0 0 -0 -0 -0 -0 -0 -0 0 0 2 2 0 0 0 0 1 0 0 1 2 2 1 1 -1 0 1 1 1 2 1 1 1 1 2 2 3
1 1 1 0 1 0 0 0 0 1 0 0 0 0 0 0 4 3 2 0 0 0 1 0 1 1 2 1 2 2 1 0 0 -0 -0 0 0 -1 -1 -0 -0 1 2
1 1 0 0 0 0 0 0 0 0 1 1 1 1 0 0 6 5 2 2 2 1 1 0 0 1 1 2 1 1 1 0 -1 -0 -1 -1 -1 -2 -1 -1 -1 -1 0
1 1 1 -0 0 0 0 0 0 0 0 1 0 0 1 0 7 6 3 2 1 2 1 0 -0 0 2 3 1 1 1 1 2 1 -0 1 1 0 -0 1 2 3 4
0 0 -0 -0 -0 -0 -0 -0 -0 0 0 1 1 0 2 0 8 7 4 2 2 1 1 0 2 0 4 4 1 1 2 1 1 1 0 1 1 1 2 -1 1 3 3
-0 -0 -0 -1 -0 -0 -0 -0 -0 0 0 0 0 0 1 1 1 8 7 2 1 1 1 1 0 4 6 7 4 0 1 0 1 1 1 1 2 2 2 1 -1 1 2
-0 -0 -0 -0 -1 -0 -0 -0 -0 0 1 1 1 1 0 0 4 9 8 6 3 2 2 1 1 7 8 7 5 3 3 3 1 2 2 1 3 3 3 1 -0 -1 -0
0 0 0 -0 -0 -0 0 0 1 0 1 1 1 1 1 0 0 7 8 8 7 4 2 3 6 9 9 7 6 5 5 2 2 2 2 3 2 3 0 -0 -0 -1 -2
1 0 0 0 0 0 0 0 1 1 1 1 1 2 1 1 1 0 2 5 7 6 5 4 5 7 7 6 6 6 4 3 3 2 2 2 2 3 3 2 1 1 1
0 1 0 0 0 0 0 1 1 0 1 1 1 1 1 2 1 3 3 1 2 5 5 4 5 6 7 7 6 6 6 4 3 2 2 3 4 3 3 1 1 2 2
1 1 1 1 1 1 1 1 5 6 8 9 10 5 1 5 9 10 11 11 10 10 5 6 6 6 6 6 6 7 6 4 3 2 2 3 4 3 3 2 2 2 3
1 1 1 2 1 1 1 1 2 2 8 11 11 11 12 8 11 13 13 13 13 11 4 5 5 5 5 6 6 5 5 3 2 3 2 2 3 2 3 3 3 2 3
1 5 1 1 1 1 1 1 1 2 2 1 6 7 11 12 11 13 13 12 8 9 4 3 4 4 4 4 4 4 4 4 3 3 3 2 2 2 2 3 3 3 3
1 1 1 1 1 1 1 1 1 1 1 1 1 3 5 11 13 13 13 2 2 4 4 3 2 3 3 4 4 4 4 4 4 2 2 2 1 1 2 3 4 6 5
0 2 1 1 1 1 1 1 1 1 1 1 1 1 1 2 1 1 3 3 2 2 2 2 2 1 1 2 2 3 4 5 5 4 3 1 1 1 2 3 4 4 3
1 1 1 1 1 1 1 1 1 1 2 2 1 1 7 1 2 1 1 1 1 2 1 1 1 1 1 1 1 2 4 4 3 4 3 2 3 3 3 3 4 4 4
0 1 1 1 1 1 1 1 1 1 2 2 2 2 6 2 1 1 1 1 1 1 1 1 1 1 1 1 1 2 3 3 4 4 4 4 3 3 4 4 4 5 5
0 1 1 1 1 2 1 1 1 1 1 2 2 2 2 2 2 2 1 1 1 1 0 1 1 1 0 0 0 1 2 2 2 2 3 3 5 3 4 5 5 5 6
1 1 1 1 1 2 1 2 1 3 2 2 2 2 3 3 2 2 1 1 1 1 0 1 1 1 0 0 0 -0 0 0 0 1 1 3 4 6 5 5 5 6 6
1 1 1 1 1 1 1 1 2 2 2 2 3 3 3 3 3 3 2 1 1 1 1 1 0 0 0 0 0 -0 2 10 2 3 1 2 5 5 5 6 6 6 5
1 1 1 1 1 1 1 2 2 2 2 3 3 4 4 5 5 5 3 1 1 1 1 0 0 0 0 0 0 3 11 14 7 10 1 3 4 5 6 5 5 6 6